Location: Unspecified
(48.8656°N, 0.0000°E)
Time: 21:37:49
(UTC+00:00)

Vanguard 1 Rocket - Pass Details

Date: 23 June 2019
Orbit: 651 x 4225 km, 34.3° (Epoch: 16 July)

Event Time Altitude Azimuth Distance (km) Brightness Sun altitude
Rises 13:48:35 0° 192° (SSW) 8,361 12.7 57.1°
Reaches altitude 10° 13:58:18 10° 176° (S) 6,932 12.3 55.8°
Maximum altitude 14:09:13 16° 146° (SE) 5,596 11.6 54.4°
Drops below altitude 10° 14:17:44 10° 114° (ESE) 5,284 11.2 53.2°
Sets 14:23:12 0° 95° (E) 5,645 11.1 52.4°
